Weather History for PANC - April, 2014

Change the Weather History Date:

Monday, April 21, 2014

  Actual Average Record
Temperature  
Mean Temperature 45 °F 39 °F  
Max Temperature 56 °F 47 °F 55 °F (2014)
Min Temperature 34 °F 31 °F 9 °F (1924)
Degree Days  
Heating Degree Days 20    
Month to date heating degree days 612  
Since 1 July heating degree days 8527  
Cooling Degree Days 0    
Month to date cooling degree days 0  
Year to date cooling degree days 0  
Moisture  
Dew Point 29 °F    
Average Humidity 54    
Maximum Humidity 70    
Minimum Humidity 38    
Precipitation  
Precipitation 0.00 in 0.02 in 0.24 in (1955)
Month to date precipitation 0.04 0.32  
Year to date precipitation 2.76 2.37  
Snow  
Snow 0.00 in 0.10 in 2.30 in (1955)
Month to date snowfall 0.4 3.3  
Since 1 July snowfall 64.7 73.5  
Snow Depth 0.00 in    
Sea Level Pressure  
Sea Level Pressure 29.94 in    
Wind  
Wind Speed 4 mph (WNW)    
Max Wind Speed 14 mph    
Max Gust Speed 21 mph    
Visibility 10 miles    
Events      
T = Trace of Precipitation, MM = Missing Value Source: NWS Daily Summary

Daily Weather History Graph

Daily Weather History Graph

Search for Another Location

Airport or City:

Trip Planner

Search our weather history database for the weather conditions in past years. The results will help you decide how hot, cold, wet, or windy it might be!

Date:

Astronomy

Apr. 21, 2014 Rise Set
Actual Time 6:20 AM AKDT 9:38 PM AKDT
Civil Twilight 5:29 AM AKDT 10:30 PM AKDT
Nautical Twilight 4:16 AM AKDT 11:44 PM AKDT
Astronomical Twilight 2:31 AM AKDT 1:26 AM AKDT
Moon 3:39 AM AKDT (4/21) 11:38 AM AKDT (4/21)
Length of Visible Light 17h 00m
Length of Day
15h 18m
Waning Gibbous, 56% of the Moon is Illuminated
Apr 21
Waning Gibbous
Apr 21
Last Quarter
Apr 28
New
May 6
First Quarter
May 14
Full

Hourly Weather History & Observations

Time (AKDT) Temp. Windchill Dew Point Humidity Pressure Visibility Wind Dir Wind Speed Gust Speed Precip Events Conditions
12:53 AM 44.1 °F 37.4 °F 30.0 °F 58% 29.91 in 10.0 mi SSE 13.8 mph 20.7 mph N/A   Partly Cloudy
1:53 AM 45.0 °F 38.9 °F 28.9 °F 53% 29.93 in 10.0 mi SSE 12.7 mph - N/A   Scattered Clouds
2:53 AM 43.0 °F 38.2 °F 30.0 °F 60% 29.94 in 10.0 mi SE 8.1 mph - N/A   Scattered Clouds
3:53 AM 39.0 °F 35.7 °F 28.9 °F 67% 29.94 in 10.0 mi ESE 4.6 mph - N/A   Scattered Clouds
4:53 AM 37.9 °F - 28.9 °F 70% 29.96 in 10.0 mi Calm Calm - N/A   Mostly Cloudy
5:53 AM 37.9 °F - 28.0 °F 68% 29.96 in 10.0 mi Calm Calm - N/A   Mostly Cloudy
6:53 AM 37.0 °F - 28.9 °F 73% 29.95 in 10.0 mi Calm Calm - N/A   Scattered Clouds
7:53 AM 39.0 °F 36.8 °F 30.0 °F 70% 29.96 in 10.0 mi ESE 3.5 mph - N/A   Scattered Clouds
8:53 AM 43.0 °F - 30.0 °F 60% 29.95 in 10.0 mi Calm Calm - N/A   Scattered Clouds
9:53 AM 42.1 °F 40.2 °F 30.9 °F 65% 29.96 in 10.0 mi WNW 3.5 mph - N/A   Partly Cloudy
10:53 AM 46.0 °F - 30.0 °F 54% 29.95 in 10.0 mi Calm Calm - N/A   Clear
11:53 AM 46.9 °F - 30.0 °F 52% 29.95 in 10.0 mi Calm Calm - N/A   Clear
12:53 PM 51.1 °F - 32.0 °F 48% 29.95 in 10.0 mi NNW 4.6 mph - N/A   Partly Cloudy
1:53 PM 53.1 °F - 28.0 °F 38% 29.95 in 10.0 mi WNW 4.6 mph - N/A   Partly Cloudy
2:53 PM 53.1 °F - 30.0 °F 41% 29.95 in 10.0 mi WNW 5.8 mph - N/A   Partly Cloudy
3:53 PM 53.1 °F - 30.0 °F 41% 29.94 in 10.0 mi WNW 6.9 mph - N/A   Partly Cloudy
4:53 PM 53.1 °F - 30.0 °F 41% 29.93 in 10.0 mi WNW 6.9 mph - N/A   Partly Cloudy
5:53 PM 52.0 °F - 28.9 °F 41% 29.94 in 10.0 mi West 5.8 mph - N/A   Partly Cloudy
6:53 PM 53.1 °F - 30.0 °F 41% 29.94 in 10.0 mi WNW 5.8 mph - N/A   Scattered Clouds
7:53 PM 50.0 °F - 28.0 °F 43% 29.93 in 10.0 mi NW 3.5 mph - N/A   Scattered Clouds
8:53 PM 50.0 °F - 27.0 °F 41% 29.93 in 10.0 mi Calm Calm - N/A   Scattered Clouds
9:53 PM 44.1 °F - 28.0 °F 53% 29.94 in 10.0 mi Calm Calm - N/A   Partly Cloudy
10:53 PM 41.0 °F - 28.0 °F 60% 29.94 in 10.0 mi Calm Calm - N/A   Partly Cloudy
11:53 PM 41.0 °F - 28.9 °F 62% 29.94 in 10.0 mi Calm Calm - N/A   Partly Cloudy